This demonstration page uses our WeatherBlox Daily Observations layout. Learn more.

Left ArrowRight Arrow

Hourly Observations for December 22, 2020

Temp ( °F °C ) Dew Point ( °F °C ) Humidity (%) Winds ( mph kmh ) Pressure ( in mb ) Visibility ( mi km ) Precip ( " mm )
12:56 am 00:56 Clear 35 1.7 28 -2.2 76 76 S 9 15 30.07 1018 10 16 0.00 0.00
1:56 am 01:56 Clear 36 2.2 29 -1.7 76 76 S 12 19 30.04 1017 10 16 0.00 0.00
2:56 am 02:56 Clear 35 1.7 28 -2.2 76 76 S 8 13 30.03 1017 10 16 0.00 0.00
3:56 am 03:56 Clear 33 0.6 28 -2.2 82 82 SSW 7 11 30.02 1017 10 16 0.00 0.00
4:56 am 04:56 Clear 34 1.1 29 -1.7 82 82 SSW 12 19 29.99 1016 10 16 0.00 0.00
5:56 am 05:56 Clear 31 -0.6 27 -2.8 85 85 S 9 15 29.97 1015 10 16 0.00 0.00
6:56 am 06:56 Clear 30 -1.1 27 -2.8 88 88 S 8 13 29.95 1014 10 16 0.00 0.00
7:56 am 07:56 Clear 33 0.6 29 -1.7 85 85 S 13 20 29.92 1013 10 16 0.00 0.00
8:56 am 08:56 Sunny 35 1.7 30 -1.1 82 82 S 14 22 29.89 1012 10 16 0.00 0.00
9:56 am 09:56 Sunny 38 3.3 32 0 79 79 S 14 22 29.85 1011 10 16 0.00 0.00
10:56 am 10:56 Sunny 43 6.1 35 1.7 74 74 S 14 22 29.83 1010 10 16 0.00 0.00
11:56 am 11:56 Sunny 47 8.3 36 2.2 66 66 S 16 26 29.76 1008 10 16 0.00 0.00
12:56 pm 12:56 Sunny 50 10 36 2.2 59 59 S 15 24 29.69 1006 10 16 0.00 0.00
1:56 pm 13:56 Sunny 53 11.7 35 1.7 51 51 S 17 28 29.61 1003 10 16 0.00 0.00
2:56 pm 14:56 Sunny 56 13.3 34 1.1 44 44 S 25 41 29.54 1000 10 16 0.00 0.00
3:56 pm 15:56 Sunny 55 12.8 34 1.1 45 45 S 17 28 29.54 1000 10 16 0.00 0.00
4:56 pm 16:56 Sunny 51 10.6 33 0.6 50 50 S 14 22 29.51 999 10 16 0.00 0.00
5:56 pm 17:56 Clear 46 7.8 33 0.6 61 61 SSE 13 20 29.49 999 10 16 0.00 0.00
6:56 pm 18:56 Clear 44 6.7 32 0 63 63 S 13 20 29.48 998 10 16 0.00 0.00
7:56 pm 19:56 Clear 44 6.7 32 0 63 63 S 13 20 29.44 997 10 16 0.00 0.00
8:56 pm 20:56 Clear 43 6.1 31 -0.6 63 63 S 13 20 29.41 996 10 16 0.00 0.00
9:56 pm 21:56 Clear 42 5.6 34 1.1 73 73 S 13 20 29.37 995 10 16 0.00 0.00
10:56 pm 22:56 Clear 41 5 34 1.1 76 76 S 8 13 29.34 994 10 16 0.00 0.00
11:56 pm 23:56 Clear 42 5.6 34 1.1 73 73 WSW 7 11 29.36 994 10 16 0.00 0.00

Powered by AerisWeather